Home   Weather   Harrisburg   Past weeks

Flag for USA Past Weather in Harrisburg, Pennsylvania, USA — Yesterday and Last 2 Weeks

66 °F


Feels Like: 66 °F
Forecast: 47 / 64 °F
Wind: 9 mph from West

Location: Capital City Airport

Current Time: Oct 23, 2016 at 6:17:12 PM

Latest Report: Oct 23, 2016 at 4:56 PM

Visibility: 10 mi

Pressure: 29.91 "Hg

Humidity: 34%

Dew Point: 37 °F

Location of HarrisburgLocation

Past Weather in Harrisburg — Graph


Harrisburg Temperature Yesterday

Maximum temperature yesterday: 57 °F (at 12:56 AM)
Minimum temperature yesterday: 49 °F (at 11:56 PM)
Average temperature yesterday: 53 °F

High & Low Weather Summary for the Past Weeks

High86 °F (Oct 18, 2:56 PM)97% (Oct 15, 7:56 AM)30.49 "Hg (Oct 15, 7:56 AM)
Low38 °F (Oct 11, 6:56 AM)28% (Oct 10, 3:56 PM)29.57 "Hg (Oct 21, 2:56 PM)
Average60 °F65%30.08 "Hg
* Reported Oct 8 4:56 PM — Oct 23 4:56 PM, Harrisburg, Weather by CustomWeather, © 2016

Note: Actual official high and low records may vary slightly from our data, if they occured in-between our weather recording intervals... More about our weather records


Harrisburg Weather History for the Previous 24 Hours

Scroll right to see more
Time TempWeatherWind HumidityBarometerVisibility
4:56 PM
Sun, Oct 23
66 °FSunny.9 mph34%29.91 "Hg10 mi
3:56 PM66 °FSunny.12 mph37%29.91 "Hg10 mi
2:56 PM66 °FPassing clouds.10 mph39%29.92 "Hg10 mi
1:56 PM65 °FPartly sunny.14 mph40%29.93 "Hg10 mi
12:56 PM64 °FPartly sunny.20 mph41%29.95 "Hg10 mi
11:56 AM62 °FBroken clouds.15 mph44%29.96 "Hg10 mi
10:56 AM60 °FPassing clouds.15 mph46%29.95 "Hg10 mi
9:56 AM58 °FPassing clouds.14 mph50%29.96 "Hg10 mi
8:56 AM55 °FSunny.12 mph53%29.96 "Hg10 mi
7:56 AM51 °FSunny.13 mph59%29.93 "Hg10 mi
6:56 AM49 °FClear.13 mph59%29.91 "Hg10 mi
5:56 AM50 °FClear.8 mph52%29.90 "Hg10 mi
4:56 AM50 °FClear.12 mph50%29.89 "Hg10 mi
3:56 AM50 °FClear.13 mph46%29.88 "Hg10 mi
2:56 AM50 °FClear.16 mph46%29.87 "Hg10 mi
1:56 AM50 °FPassing clouds.12 mph48%29.86 "Hg10 mi
12:56 AM50 °FOvercast.10 mph52%29.85 "Hg10 mi
11:56 PM
Sat, Oct 22
49 °FPassing clouds.12 mph59%29.84 "Hg10 mi
10:56 PM50 °FMostly cloudy.14 mph54%29.82 "Hg10 mi
9:56 PM51 °FMostly cloudy.12 mph52%29.81 "Hg10 mi
8:56 PM50 °FPassing clouds.14 mph57%29.80 "Hg10 mi
7:56 PM51 °FPartly cloudy.16 mph52%29.79 "Hg10 mi
6:56 PM52 °FPassing clouds.16 mph47%29.75 "Hg10 mi
Weather by CustomWeather, © 2016

See weather overviewHow to use our weather pages